Regional Weather Roundup
Issued by NWS

Home | Current Version | Previous Version | Graphics & Text | Print | Product List | Glossary On
Versions: 1 2 3 4 5 6 7 8 9 10 11 12 13 14 15 16 17 18 19 20 21 22 23 24 25 26 27 28 29 30 31 32 33 34 35 36 37 38 39 40 41 42 43 44 45 46 47 48 49 50
000
ASUS43 KDMX 221906
RWRIA

WEATHER ROUNDUP FOR IOWA
NATIONAL WEATHER SERVICE DES MOINES IA
100 PM CST SUN JAN 22 2017

NOTE: "FAIR" INDICATES FEW OR NO CLOUDS BELOW 12,000 FEET WITH NO
SIGNIFICANT WEATHER AND/OR OBSTRUCTIONS TO VISIBILITY.

* - THESE STATIONS ARE NOT NWS STATIONS...THUS NOT UNDER NWS
QUALITY CONTROL.  THEY ALSO DO NOT REPORT WEATHER SUCH
AS PRECIPITATION OR FOG.

IAZ001>003-012>014-020>022-031>034-043>046-222000-
   NORTHWEST IOWA

CITY           SKY/WX    TMP DP  RH WIND       PRES   REMARKS
CARROLL *      CLOUDY    37  36  93 N14       29.74S WCI  29
CHEROKEE *     CLOUDY    37  35  94 NW9       29.77S WCI  30
DENISON *      CLOUDY    36  34  93 NW13      29.74F WCI  27
LE MARS *      CLOUDY    34  32  93 NW13      29.81F FOG     WCI  25
ORANGE CITY *  CLOUDY    36  34  93 NW12      29.78S FOG     WCI  27
SHELDON *      CLOUDY    34  34 100 NW12      29.76S FOG     WCI  25
SIOUX CITY     CLOUDY    35  31  85 NW22      29.80F WCI  23
SPENCER          N/A    N/A N/A N/A MISG      29.76S
STORM LAKE *   MOSUNNY   36  34  93 NW10      29.75S FOG     WCI  28
$$

IAZ055>058-069>071-079>083-090>094-222000-
   SOUTHWEST IOWA

CITY           SKY/WX    TMP DP  RH WIND       PRES   REMARKS
ATLANTIC *     CLOUDY    36  36 100 NW12      29.76R FOG     WCI  27
AUDUBON *      RAIN      36  34  93 NW10      29.75S WCI  28
CLARINDA *     CLOUDY    36  36 100 N10       29.79R WCI  28
COUNCIL BLFS * CLOUDY    34  34 100 NW13G21   29.78S WCI  25
CRESTON *      CLOUDY    36  36 100 N9        29.74S FOG     WCI  29
HARLAN  *      CLOUDY    36  36 100 N16       29.80R WCI  26
LAMONI         CLOUDY    38  35  89 NW9       29.71S WCI  31
RED OAK *      CLOUDY    36  34  93 NW8       29.78R WCI  29
SHENANDOAH *   CLOUDY    37  34  87 NW7       29.79S WCI  32
$$

IAZ047>049-059>061-072>074-084-222000-
   CENTRAL IOWA

CITY           SKY/WX    TMP DP  RH WIND       PRES   REMARKS
AMES           CLOUDY    36  36 100 NW9       29.72S FOG     WCI  29
ANKENY *       CLOUDY    37  36  93 NW10      29.73S FOG     WCI  30
BOONE *        CLOUDY    37  37 100 N9        29.71S FOG     WCI  31
CHARITON *     CLOUDY    36  36 100 NW10      29.70F FOG     WCI  28
DES MOINES     CLOUDY    38  35  89 NW10      29.72S WCI  31
GRINNELL*      CLOUDY    35  35  99 N9        29.70R WCI  28
KNOXVILLE *    CLOUDY    36  36 100 NW10      29.69S FOG     WCI  28
MARSHALLTOWN   CLOUDY    38  35  89 NW13      29.69F WCI  30
NEWTON *       CLOUDY    36  34  93 N10       29.70S FOG     WCI  28
PELLA *        CLOUDY    36  35  96 NW12      29.71F FOG     WCI  28
PERRY *        CLOUDY    36  35  96 NW9       29.74S FOG     WCI  29
$$

IAZ004>006-015-016-023>025-035-036-222000-
   NORTH CENTRAL IOWA

CITY           SKY/WX    TMP DP  RH WIND       PRES   REMARKS
ALGONA *       CLOUDY    37  37 100 NW10      29.73S FOG     WCI  30
CLARION *      CLOUDY    36  36 100 NW14      29.71F FOG     WCI  27
ESTHERVILLE    CLOUDY    35  35 100 NW10      29.74S FOG     WCI  27
FORT DODGE *   CLOUDY    36  32  87 NW7       29.74R WCI  30
MASON CITY     CLOUDY    35  34  96 NW14      29.71F FOG     WCI  26
FOREST CITY *  FOG       36  36 100 NW10      29.72S VSB 3/4 WCI  28
WEBSTER CITY * FOG       36 N/A N/A NW13      29.70S VSB 1   WCI  27
IOWA FALLS *   CLOUDY    37  37  97 N10       29.71S FOG     WCI  30
$$

IAZ007>011-017>019-026>030-037>042-050>054-066-222000-
   NORTHEAST IOWA

CITY           SKY/WX    TMP DP  RH WIND       PRES   REMARKS
CEDAR RAPIDS   CLOUDY    35  32  88 NW10      29.66F WCI  27
CHARLES CITY * CLOUDY    36  36 100 NW7       29.69F FOG     WCI  30
CLINTON *      MOSUNNY   39  38  96 N6        29.66F WCI  35
DECORAH *      CLOUDY    36  36 100 NW6       29.66S FOG     WCI  31
DUBUQUE        CLOUDY    41  36  82 NW6       29.65F
MONTICELLO *   CLOUDY    39  39 100 NW5       29.66F FOG
OELWEIN *      CLOUDY    36  36 100 NW6       29.68F WCI  31
WATERLOO       CLOUDY    37  34  89 NW7       29.68F WCI  32
$$

IAZ064-065-067-068-078-222000-
   EAST CENTRAL IOWA

CITY           SKY/WX    TMP DP  RH WIND       PRES   REMARKS
DAVENPORT      PTSUNNY   40  37  89 N8        29.66S WCI  34
IOWA CITY      CLOUDY    37  33  85 N9        29.69F WCI  30
MUSCATINE *    CLOUDY    39  37  93 NW10      29.67F FOG     WCI  32
QUAD CITIES    CLOUDY    41  34  76 NW6       29.65S
$$

IAZ062-063-075>077-085>089-095>099-222000-
   SOUTHEAST IOWA

CITY           SKY/WX    TMP DP  RH WIND       PRES   REMARKS
BURLINGTON     CLOUDY    38  38 100 N14       29.64F FOG     WCI  30
FAIRFIELD *    CLOUDY    36  36 100 NW14      29.66F WCI  27
FORT MADISON * CLOUDY    37  37 100 N10       29.66F FOG     WCI  30
KEOKUK *       CLOUDY    37 N/A N/A NW12G17   29.65F FOG     WCI  30
OSKALOOSA *    CLOUDY    35  34  97 NW10      29.69F FOG     WCI  27
CENTERVILLE *  CLOUDY    36  36 100 NW10      29.69F WCI  28
OTTUMWA        CLOUDY    37  33  85 NW13      29.67F WCI  29
WASHINGTON *   CLOUDY    36  36 100 NW13      29.68F FOG     WCI  27
$$

ABBREVIATIONS USED IN REMARKS
   TC - TEMPERATURES IN CELSIUS
  WCI - WIND CHILL INDEX
   HX - HEAT INDEX
  VSB - VISIBILITY
$$





USA.gov is the U.S. government's official web portal to all federal, state and local government web resources and services.